Theta_e
330 329 326 326 324 321 316 305 296 293 296 290 288 290 292 297 295 294 294 294 295 297 300 301 302 303 301 300 299 301 302 299 298 294 291 299 312 317 322 325 326 325 325 326 325 327 331 338 340 341 341 342 342 341 341 342 343 344 344 346 346 346 346 347 347 346 346 346 346 345 345 345 345 345 345 345 345 344 344 344 344 345 346 347 347 348 347 347 347 347 346 347 346 346 346 347 347
327 322 323 324 321 317 309 301 293 290 287 285 290 291 292 293 295 292 292 292 292 299 299 301 300 301 301 303 303 302 301 304 304 303 304 310 312 315 322 325 325 324 324 324 325 325 326 332 339 339 340 340 340 340 340 341 342 342 342 342 343 343 343 344 344 344 344 344 343 343 342 342 343 342 342 343 343 342 341 342 342 342 343 345 345 347 347 346 347 346 345 344 342 341 342 343 343
325 323 323 319 317 313 309 300 295 287 287 285 287 290 293 293 293 293 293 293 297 299 297 299 300 300 300 301 300 300 295 306 305 306 306 312 314 316 318 324 324 324 324 323 324 324 324 328 338 338 339 339 339 339 339 339 340 340 340 340 340 341 341 341 341 341 341 341 341 341 340 340 340 340 340 340 341 340 339 339 339 340 341 343 344 345 345 344 343 342 341 339 338 336 336 337 338
322 323 321 314 311 304 299 295 288 287 288 285 287 291 292 291 293 294 296 296 299 298 298 301 300 300 299 297 298 302 303 303 305 307 306 310 314 319 316 322 324 324 323 323 323 323 322 331 337 337 337 338 338 338 338 338 337 338 338 338 338 338 338 337 338 338 338 339 338 337 337 337 337 338 337 338 337 337 337 336 336 336 338 338 339 341 340 339 338 337 336 335 334 332 331 331 333
319 320 322 311 307 303 298 295 292 289 290 287 287 290 293 293 296 296 297 298 297 297 298 299 298 301 301 300 300 299 296 304 307 309 307 311 312 318 316 322 323 322 322 322 323 323 323 333 336 337 337 337 337 337 337 337 336 336 336 336 336 336 336 336 337 337 336 335 335 335 335 335 335 335 336 335 334 333 332 332 332 332 332 334 334 336 336 335 334 333 332 332 331 330 328 328 328
317 315 316 314 308 307 299 295 292 290 294 290 293 294 292 295 298 297 297 297 298 297 298 297 297 298 300 300 301 300 303 302 305 307 307 311 313 316 318 322 322 321 321 321 321 322 322 333 336 336 336 336 337 336 336 335 335 335 335 335 335 335 334 334 334 334 334 333 333 333 333 333 333 332 332 331 331 330 330 329 330 330 329 330 331 332 332 332 331 330 329 328 328 327 326 326 326
315 309 308 302 304 300 293 290 290 289 296 296 294 294 297 295 298 296 297 299 299 298 298 299 297 297 297 299 301 304 307 308 307 307 311 311 315 315 318 320 320 319 318 319 319 320 320 333 334 335 335 335 335 334 335 334 334 334 334 334 335 334 334 333 333 333 333 333 333 333 333 332 331 330 329 329 329 328 328 328 328 327 327 326 327 328 329 329 328 327 325 325 326 326 325 325 326
316 309 305 295 294 294 291 288 289 290 291 298 295 295 294 298 297 296 296 296 296 296 298 298 298 295 294 302 297 301 305 307 307 308 310 313 315 314 316 318 318 317 317 317 317 317 326 333 334 333 333 334 334 334 333 333 334 334 334 334 334 334 334 333 333 332 331 330 330 330 330 329 328 327 327 327 327 326 326 326 325 325 325 324 324 325 325 326 326 325 324 324 324 324 324 324 324
309 310 303 296 293 291 289 291 291 292 293 294 296 297 304 298 297 296 295 295 297 295 297 298 297 294 291 299 296 300 302 306 307 311 311 314 315 314 315 317 317 315 315 316 316 316 319 331 333 332 332 332 333 334 334 334 334 334 334 334 333 333 333 332 331 330 329 329 328 329 328 328 327 327 326 325 325 325 324 324 324 324 323 323 323 323 323 324 324 325 324 324 323 323 323 323 323
307 304 297 294 291 292 287 289 291 293 294 296 297 298 298 298 297 297 296 296 296 296 296 297 296 295 295 296 297 300 301 305 308 309 312 314 315 313 313 316 316 314 314 314 314 315 316 327 330 331 331 332 333 333 333 332 332 332 332 331 331 331 330 330 329 327 327 327 327 327 327 327 326 326 325 324 323 323 323 323 323 323 322 322 322 322 322 322 323 323 323 323 323 322 323 322 321
299 301 299 296 289 289 289 288 289 294 293 296 295 295 298 298 297 295 295 295 296 295 297 298 299 296 297 296 297 302 304 305 308 308 310 313 312 310 311 314 314 314 314 312 312 313 315 318 326 329 330 331 331 332 331 331 330 330 330 330 329 329 328 328 327 326 326 326 326 325 325 325 324 324 324 324 322 321 321 321 321 321 322 321 321 321 321 322 322 322 322 321 321 321 320 319 320
300 298 297 289 287 287 287 288 290 293 295 294 295 298 295 298 296 296 295 296 296 296 297 298 298 296 296 295 296 298 304 304 307 309 310 310 309 307 310 312 313 313 313 312 312 312 313 315 319 325 328 328 329 330 329 329 329 328 328 328 328 328 327 326 326 326 326 325 324 323 323 322 322 321 321 322 320 320 320 320 320 321 321 321 321 321 321 321 322 322 320 319 319 319 318 318 318
298 296 291 291 286 288 288 290 291 294 291 291 295 299 295 296 296 295 294 295 295 296 296 299 299 299 295 295 295 300 301 303 305 307 308 306 304 305 308 310 311 311 311 311 311 311 310 312 315 315 320 325 325 326 327 328 327 327 327 326 325 325 325 325 325 325 324 324 323 321 319 318 317 318 319 320 320 319 319 319 320 321 321 320 321 321 321 321 321 319 317 316 316 316 316 317 316
300 297 295 291 288 289 290 289 287 289 287 293 295 295 297 298 296 295 293 295 295 295 297 300 299 299 296 296 294 297 301 303 303 305 304 302 301 303 306 307 308 309 309 309 310 310 309 310 312 313 315 316 316 321 324 326 326 326 325 324 324 324 324 324 324 324 323 322 321 319 317 316 316 315 315 318 319 318 317 318 319 320 319 319 320 320 319 319 318 317 316 315 315 314 314 315 314
303 299 292 290 287 286 286 290 289 288 290 292 296 297 298 299 298 294 296 296 295 297 301 300 300 299 293 297 294 297 302 303 303 304 301 301 301 302 302 305 306 306 307 308 309 308 308 308 310 309 310 310 311 312 312 320 323 324 324 323 323 323 323 322 322 320 319 319 318 317 316 315 314 314 314 316 316 315 314 314 317 318 318 318 318 318 317 317 316 315 315 314 313 312 312 312 312
302 296 292 293 286 287 287 289 290 291 291 293 296 295 296 296 297 298 297 298 299 300 299 299 301 299 297 297 296 297 303 303 303 301 300 299 299 300 300 301 303 304 304 306 306 306 306 307 307 307 307 307 307 307 308 311 320 321 322 321 321 321 321 320 318 316 315 315 314 313 312 309 309 308 310 309 313 313 312 312 314 314 315 316 316 316 316 315 314 313 312 312 311 309 309 309 309
300 296 293 286 288 287 287 290 291 290 291 292 294 295 296 294 296 297 295 297 297 298 298 297 300 301 296 296 298 300 302 304 303 299 299 298 298 297 297 297 298 299 302 302 304 305 304 305 305 305 304 304 305 304 305 306 313 318 318 319 319 318 318 317 317 315 313 311 309 309 305 300 299 300 300 301 307 305 311 312 312 312 312 313 313 313 313 313 312 311 310 310 309 308 306 305 305
300 294 287 285 287 288 290 293 292 295 295 294 295 293 294 293 294 298 297 297 295 294 296 296 298 295 297 298 300 301 302 301 299 299 298 297 296 296 296 296 297 298 299 300 301 303 302 303 304 303 303 302 303 304 305 306 308 312 307 308 307 311 313 313 307 303 307 302 307 301 298 300 298 298 301 307 302 303 306 310 310 309 309 310 311 311 311 311 311 309 308 307 307 305 303 294 296
298 290 288 287 286 292 294 295 295 294 294 294 293 292 294 295 295 296 296 293 293 294 294 295 297 296 297 298 299 300 301 299 299 299 297 297 296 296 297 297 296 296 297 298 299 300 301 302 302 302 302 301 301 302 303 304 303 303 302 302 305 307 306 302 300 301 297 299 299 298 298 297 296 298 300 302 303 309 306 308 307 306 306 306 307 308 308 309 309 307 306 305 304 302 294 292 292
297 293 288 289 292 292 294 295 297 294 296 294 294 294 292 294 295 296 295 294 291 293 294 294 295 298 296 296 297 299 299 298 298 298 297 297 297 297 297 296 296 297 298 298 299 299 300 300 301 301 301 300 300 300 301 302 300 300 300 300 301 301 300 300 298 297 297 297 298 297 295 296 296 297 307 308 304 298 301 306 305 306 305 302 301 299 303 304 304 305 304 302 299 296 292 291 292
296 295 290 292 292 294 297 296 296 294 294 295 293 294 292 292 294 295 292 293 294 295 296 297 296 297 297 295 297 297 298 297 297 297 297 297 297 298 298 298 298 298 298 298 297 298 298 298 299 299 300 298 299 299 300 298 297 297 297 297 298 297 297 297 297 296 295 296 297 297 295 296 296 297 296 295 293 294 292 293 293 293 292 293 298 290 291 293 293 291 292 294 291 292 292 291 292
296 297 297 296 293 294 297 296 295 294 293 295 292 294 296 294 294 294 293 294 296 296 294 298 299 300 296 295 296 297 297 297 297 297 297 297 296 296 297 297 297 295 296 296 297 297 298 298 299 299 299 298 298 298 298 298 298 296 296 296 297 297 297 296 297 296 296 295 296 296 297 295 294 294 293 293 293 293 292 291 291 291 291 291 293 290 290 290 290 290 291 292 291 291 291 291 292
295 295 295 296 295 296 296 298 295 293 295 294 293 295 294 294 294 291 293 296 300 298 294 297 299 300 299 298 297 296 296 296 297 297 297 297 297 297 297 298 297 296 295 297 297 297 298 298 298 299 299 298 296 296 296 297 296 295 295 296 296 296 296 296 295 295 295 295 296 297 295 294 293 292 292 292 292 292 292 291 290 290 290 290 291 289 289 290 290 290 290 290 290 291 291 291 291
298 296 293 297 295 296 298 299 295 292 292 294 293 293 294 293 294 292 293 299 300 299 293 295 297 297 296 297 296 297 297 297 297 298 298 298 298 298 298 298 298 297 295 296 296 297 298 297 298 298 299 299 297 295 295 296 296 295 295 299 297 298 297 296 295 295 296 295 296 296 295 293 293 292 292 292 291 292 291 291 290 289 289 290 291 290 289 289 289 289 290 290 290 290 290 290 290
296 296 296 297 296 296 295 293 290 291 292 292 292 293 295 293 294 292 296 300 300 298 296 297 294 294 294 297 296 297 297 297 297 298 298 299 299 299 298 298 297 297 295 295 296 296 297 298 298 298 299 299 298 296 295 297 296 295 295 296 296 300 296 295 296 296 295 294 294 295 294 293 292 292 292 292 291 291 291 290 289 289 289 289 290 289 289 289 289 289 289 289 289 289 289 290 289
295 298 296 293 294 294 294 294 294 294 294 293 293 294 295 293 294 294 298 301 300 296 296 297 295 295 294 295 297 297 297 297 298 297 298 299 298 297 297 298 297 296 297 296 295 296 297 298 297 298 299 299 299 297 295 297 296 295 295 296 296 299 295 295 295 294 294 294 293 294 294 292 292 292 292 290 291 290 290 290 289 289 288 288 288 289 289 288 288 288 289 289 289 288 289 290 289
294 292 292 293 294 293 294 293 296 294 293 290 294 295 295 292 294 294 300 299 297 295 296 296 294 295 296 296 296 297 297 297 298 299 298 297 297 297 298 298 297 297 297 296 296 296 297 297 297 298 298 300 298 297 295 297 296 296 296 296 296 297 295 295 294 294 293 293 293 293 293 293 292 292 291 291 290 290 289 289 288 288 287 288 289 288 289 289 288 288 289 288 288 288 288 288 289
294 293 293 294 293 293 294 292 294 294 295 293 294 294 293 290 292 295 299 295 293 294 293 293 293 295 296 296 296 296 297 298 299 297 297 297 297 298 297 298 298 297 296 296 297 297 296 297 297 297 298 299 298 297 296 296 296 296 296 296 296 296 295 295 294 293 293 292 292 293 292 292 293 291 291 290 290 289 289 289 288 288 287 287 288 288 288 288 288 288 289 288 288 288 288 288 288
294 293 292 293 292 293 297 294 295 293 294 291 292 291 291 289 290 297 299 298 297 294 294 293 293 294 295 295 295 295 296 298 297 297 298 299 300 300 298 299 299 298 298 298 297 296 295 296 297 297 298 298 297 296 296 296 296 296 296 296 296 296 295 294 293 292 293 292 292 292 292 292 293 291 291 291 292 289 289 288 288 288 288 288 288 288 288 287 287 287 288 288 288 287 287 287 288
294 292 291 292 291 290 296 292 292 292 292 291 293 286 289 292 295 298 299 297 296 293 295 296 296 295 296 295 295 295 296 296 296 298 299 299 300 299 299 300 300 299 298 297 295 295 296 297 298 297 297 297 297 296 296 295 296 296 296 295 296 295 295 294 293 292 292 292 292 292 292 292 292 291 291 290 289 289 289 288 288 287 287 288 288 288 286 286 286 287 287 287 290 287 286 286 286
291 289 290 286 285 286 294 293 289 291 291 292 294 287 290 295 295 296 297 295 294 294 295 296 296 295 295 295 295 296 297 296 297 298 299 300 300 299 299 299 299 299 298 296 295 296 296 296 297 297 297 296 297 295 296 295 295 295 295 294 295 295 294 294 293 292 292 292 291 291 292 292 291 291 291 290 289 289 288 288 287 287 288 288 287 287 286 286 286 287 287 286 285 285 285 287 285
288 288 285 283 286 288 293 291 290 292 291 290 293 286 290 295 297 296 294 293 292 293 294 295 295 295 294 295 295 295 297 298 297 298 298 299 299 299 299 299 299 299 298 297 297 296 295 296 297 296 296 296 296 296 295 295 295 295 295 296 294 294 294 293 292 292 292 292 291 291 291 292 291 290 290 289 289 288 288 288 287 287 287 287 287 287 287 286 286 286 286 286 284 284 285 284 284
284 288 285 286 282 285 288 291 289 293 291 291 293 289 288 291 295 296 293 294 291 292 293 293 294 294 294 294 295 295 296 297 297 298 298 298 299 299 299 299 298 299 299 298 296 295 295 295 297 296 295 296 296 295 295 294 295 294 294 294 294 293 293 292 292 292 292 291 290 290 291 291 290 290 290 289 289 288 287 287 287 287 287 286 286 285 285 286 286 287 286 287 284 284 284 284 284
285 284 284 284 284 285 285 289 289 288 292 289 290 288 291 295 297 293 290 290 289 289 291 292 293 294 294 294 294 295 296 297 298 299 298 297 299 299 300 300 299 299 299 298 297 296 295 295 296 296 296 296 296 295 294 294 294 294 293 293 294 293 292 292 291 291 291 291 290 290 290 291 290 290 289 288 288 288 287 287 287 287 287 286 285 285 285 285 285 285 284 285 284 283 283 284 284
284 282 282 284 284 285 288 286 288 289 288 289 289 288 290 293 295 296 296 293 291 291 293 293 292 292 294 294 295 295 295 296 298 300 299 297 297 298 299 299 299 298 299 298 296 296 295 294 295 295 295 295 295 294 293 293 293 292 291 292 292 291 291 290 291 291 291 290 290 290 290 290 290 289 289 288 288 288 287 287 286 286 287 285 285 285 284 285 285 284 284 284 284 284 284 284 284
287 286 285 282 284 284 285 290 291 291 289 288 288 289 290 291 293 295 296 295 294 295 293 292 293 294 294 295 296 297 297 297 299 300 297 296 297 298 298 298 298 298 298 297 296 295 294 294 294 294 294 295 294 293 293 292 291 291 291 289 290 290 290 290 290 291 290 290 290 290 290 289 289 289 288 288 288 287 286 286 286 286 286 285 285 284 284 284 284 283 283 283 283 285 285 284 283
288 286 284 285 285 287 288 290 291 288 288 288 290 290 291 292 293 295 296 295 294 294 293 293 294 294 295 296 296 297 298 299 302 298 297 297 296 297 298 298 297 296 296 296 295 294 294 294 293 293 294 294 293 292 292 291 291 290 290 291 291 291 290 290 290 290 290 290 290 290 289 289 289 288 288 287 287 288 286 286 286 285 286 285 285 285 284 284 284 283 284 286 283 282 282 282 283
288 287 285 287 285 286 290 291 291 288 289 287 289 290 291 292 293 295 295 293 293 294 295 295 295 294 294 295 296 297 298 300 299 297 294 293 294 295 295 295 295 295 295 294 294 294 293 293 293 293 293 293 293 293 293 292 293 292 292 292 292 291 290 290 289 289 290 290 290 289 289 288 288 288 288 287 287 287 286 286 286 285 285 285 285 284 283 286 285 283 283 282 283 282 281 283 284
287 286 286 285 286 288 291 291 293 291 286 288 290 289 290 291 293 294 294 294 296 296 296 297 296 295 294 294 295 297 297 298 298 297 293 293 293 293 293 294 295 297 296 295 295 293 292 292 293 293 293 293 293 293 293 292 292 292 292 291 292 290 289 290 290 289 289 289 289 289 289 288 288 287 288 287 287 286 286 286 285 285 285 286 285 284 284 284 283 283 282 281 281 282 282 283 282
284 284 282 284 287 285 286 287 288 287 289 282 281 285 288 289 291 291 293 294 295 296 296 296 296 295 295 296 297 298 297 297 297 298 296 292 292 293 292 292 294 294 293 291 291 292 292 292 292 293 292 293 293 293 293 293 292 290 289 290 290 289 288 289 288 287 287 288 288 288 288 288 288 287 287 287 287 286 285 285 285 285 285 285 285 284 283 283 282 282 282 282 282 279 279 281 283
287 287 286 286 287 288 287 286 285 286 286 285 286 286 287 289 289 291 293 295 294 295 295 294 295 295 296 297 297 298 298 298 298 297 294 290 290 292 293 293 291 292 292 292 292 292 293 292 292 292 292 292 293 293 293 291 290 288 288 288 288 287 287 286 286 285 287 288 288 287 288 288 288 287 287 287 286 286 285 285 284 284 284 284 284 283 283 283 282 282 282 283 281 280 279 279 281
288 287 289 290 290 288 287 288 286 283 283 285 285 282 284 286 289 290 292 290 291 294 293 294 295 296 296 295 296 298 298 298 298 298 297 293 292 291 290 289 290 292 292 293 293 293 292 292 292 292 292 292 292 292 292 291 290 289 288 287 286 287 286 285 286 287 286 287 288 288 287 288 288 287 287 286 286 286 285 284 284 284 284 284 284 283 283 282 282 282 282 282 281 280 280 280 279
287 284 289 291 289 287 285 284 285 280 280 285 285 280 282 282 284 287 288 289 291 292 291 293 294 295 295 295 296 297 297 296 295 295 294 292 291 290 290 290 291 291 292 291 291 291 291 292 291 292 292 291 292 292 291 291 290 289 289 289 289 288 287 287 288 288 288 288 288 287 287 287 287 287 286 286 286 285 285 284 284 284 284 283 284 282 282 282 282 282 282 281 281 283 281 279 279
285 284 286 286 286 284 284 283 284 284 282 283 283 282 280 283 286 287 290 291 290 290 292 292 293 294 294 295 295 295 297 295 294 294 294 293 292 292 292 291 290 292 290 288 289 290 289 290 290 291 291 291 291 291 290 291 290 289 289 289 289 289 289 288 288 288 288 288 287 287 287 287 286 287 286 285 285 285 284 284 283 283 283 283 284 283 282 282 282 283 282 282 282 282 281 280 278
285 285 285 285 286 284 284 285 282 281 279 282 282 282 281 282 285 291 291 288 288 290 293 294 294 294 295 295 296 295 296 296 293 294 293 292 291 291 292 290 289 287 288 289 289 290 289 289 289 289 290 290 290 291 290 290 291 290 289 289 288 289 289 288 287 288 287 287 287 286 286 286 286 286 286 285 285 285 285 284 283 283 283 283 284 282 282 282 282 282 281 281 281 281 281 280 279
287 286 285 283 282 282 284 282 285 278 277 281 280 283 279 282 288 283 285 286 287 289 292 294 295 295 296 297 297 296 296 295 292 293 293 292 292 291 291 288 286 287 286 288 286 287 287 287 288 288 288 288 289 289 290 289 290 289 289 288 288 288 287 285 286 286 286 286 286 286 286 285 285 285 285 285 284 284 284 284 283 283 282 282 283 282 281 281 281 281 281 280 280 280 281 280 280
286 286 286 282 281 279 278 278 277 277 278 281 281 283 282 279 283 284 283 284 288 290 290 292 293 294 294 295 295 297 297 297 294 291 291 290 289 288 286 286 285 284 284 286 286 287 287 287 287 287 288 288 288 288 288 288 289 288 288 288 288 287 286 285 285 285 285 285 285 285 285 285 285 285 284 284 284 284 283 283 283 282 282 283 283 281 281 281 281 281 280 280 280 280 279 280 282
287 288 280 283 284 277 276 271 277 275 277 280 282 283 284 278 280 281 285 284 285 290 290 292 292 293 294 295 295 296 296 295 292 289 289 287 286 284 285 285 284 284 284 285 285 286 286 287 287 287 287 287 287 288 288 288 288 288 288 288 288 288 287 286 285 285 285 285 285 285 285 284 284 284 284 283 283 283 283 282 282 282 282 282 281 281 281 281 281 280 280 280 279 279 279 280 280
284 281 283 280 275 273 271 271 271 271 277 278 280 283 279 281 284 283 287 288 284 287 291 292 292 293 293 294 294 295 294 290 291 289 287 286 288 286 286 285 283 284 285 285 285 286 286 286 287 287 287 286 287 287 287 287 287 288 288 287 287 288 287 286 286 286 285 285 285 285 284 284 284 283 283 283 283 282 283 282 281 281 281 281 281 280 280 280 280 279 279 279 279 279 279 279 278
284 284 281 277 273 270 268 266 266 270 276 278 279 281 282 284 281 288 291 293 293 290 292 292 292 293 293 293 293 293 288 288 290 288 288 288 288 287 287 286 285 285 285 285 285 286 286 287 286 287 288 286 286 286 287 287 287 288 287 287 287 287 287 286 286 286 286 286 286 285 285 285 284 284 284 283 284 283 283 283 282 281 281 281 281 280 280 280 279 279 279 278 278 278 278 278 277
286 284 286 283 279 268 266 269 276 277 279 275 276 277 275 275 282 285 293 291 289 288 290 292 290 289 289 287 287 289 289 287 287 287 288 288 288 287 287 287 286 285 285 285 285 285 285 286 286 287 287 286 286 286 287 287 287 287 287 287 287 287 287 286 286 286 285 285 285 285 285 285 284 284 284 284 284 283 283 282 281 281 281 280 280 280 280 279 279 279 279 278 278 278 278 278 277
283 282 282 280 280 279 281 282 277 277 272 274 273 278 277 284 287 286 285 288 290 288 288 288 290 291 290 289 291 291 292 286 285 286 287 287 286 286 286 286 286 285 284 285 285 285 285 286 286 287 288 287 286 286 286 287 287 287 287 286 286 286 286 286 285 285 285 285 285 285 284 284 284 284 284 284 283 283 282 281 281 280 280 280 280 280 279 279 279 278 278 278 277 279 277 277 277
282 284 281 285 285 285 283 282 282 276 273 278 276 278 283 284 288 288 289 289 289 287 288 288 289 291 291 291 291 290 290 284 285 287 288 288 284 285 286 285 285 284 284 285 285 286 286 287 286 286 287 287 286 286 286 287 287 286 286 286 286 285 285 285 285 284 284 284 284 284 284 284 283 283 283 283 282 282 282 281 281 280 280 280 279 279 279 278 278 278 278 277 277 277 277 277 276
283 279 283 286 285 283 282 276 277 280 277 278 278 280 281 280 280 282 283 284 285 284 287 291 292 290 288 291 290 291 288 287 286 286 286 285 285 285 285 285 285 285 285 285 285 286 286 286 286 286 286 286 286 286 286 286 286 286 286 286 286 286 286 285 285 284 283 283 283 283 283 282 283 283 283 283 282 282 281 281 280 279 279 279 279 279 278 278 278 277 277 277 277 277 277 276 276
283 282 286 286 278 277 280 275 275 276 276 277 280 283 282 283 284 285 286 287 289 290 288 286 288 289 289 290 289 289 284 285 287 288 287 287 286 287 286 285 284 284 284 285 285 285 285 285 286 286 286 287 287 286 286 286 286 287 287 286 286 285 285 285 285 284 282 283 282 283 282 282 282 281 282 281 281 281 281 280 280 279 279 279 278 278 278 278 277 277 277 276 276 276 276 275 276
286 287 285 283 281 278 276 281 277 280 278 279 279 283 281 286 282 285 284 286 288 287 285 285 286 288 289 289 290 290 288 287 288 288 288 288 287 287 287 285 284 284 283 283 283 283 284 285 285 285 286 285 285 285 286 285 286 286 286 286 285 285 285 285 284 283 282 282 283 282 282 281 281 281 281 281 281 280 280 280 279 279 278 278 278 278 278 277 277 277 276 276 276 276 275 275 275
284 285 281 283 281 282 282 282 280 281 279 279 278 278 282 288 283 285 285 284 283 283 287 287 287 288 287 286 288 289 288 287 288 288 289 289 288 287 286 285 284 283 283 283 283 284 284 284 284 285 285 285 285 286 286 286 286 286 285 285 285 285 284 284 283 283 283 282 282 282 282 281 280 281 281 280 280 280 280 280 279 279 278 278 277 277 277 277 276 276 276 275 275 275 275 274 274
286 286 285 286 284 280 279 278 284 280 281 278 279 277 284 291 288 285 286 285 284 288 288 287 287 288 289 292 288 287 288 289 288 289 289 289 287 286 285 284 283 284 283 283 284 283 283 284 285 285 285 285 285 285 285 286 286 286 285 285 285 284 284 283 283 282 282 282 282 281 281 280 280 280 280 280 280 280 279 279 278 278 278 277 277 277 277 276 276 275 275 275 275 275 274 274 274
Wind_Speed
4 5 4 2 1 1 1 5 1 3 2 4 4 0 2 1 1 1 1 2 1 1 1 2 1 2 1 2 5 4 2 9 6 9 5 1 1 2 6 9 8 7 8 5 4 4 4 8 11 11 11 12 11 11 11 11 10 10 10 11 10 11 11 12 11 11 11 11 10 10 9 10 10 10 11 12 12 12 12 11 10 9 11 11 10 11 12 12 11 11 12 13 12 12 13 13 12
2 4 3 1 1 1 1 1 3 3 4 3 6 1 4 2 1 3 5 5 3 2 1 0 3 6 8 9 6 5 1 1 3 1 1 4 2 2 7 10 8 9 7 5 5 5 4 5 11 12 12 12 12 11 11 10 10 9 9 9 10 10 10 10 10 10 10 9 9 8 8 9 9 10 10 11 13 12 12 11 10 9 10 11 11 13 13 14 15 16 14 14 14 13 12 12 13
2 4 4 5 3 3 1 4 2 1 1 3 7 6 2 1 3 3 7 5 3 1 2 1 1 2 3 2 1 2 4 1 2 1 1 0 6 7 7 8 8 8 7 4 5 5 4 5 9 12 14 13 13 13 13 12 11 10 9 9 10 10 10 10 10 10 10 9 9 8 8 8 8 9 10 11 13 13 13 11 10 10 10 11 12 14 15 15 14 14 14 14 13 13 13 13 13
1 1 1 2 1 4 1 3 4 3 1 5 4 4 2 3 4 5 4 5 3 1 1 1 2 1 3 0 2 3 0 1 4 6 4 7 8 8 8 9 8 7 5 5 4 4 4 6 9 13 13 14 13 14 14 13 12 11 10 10 10 10 10 10 10 9 9 9 8 8 8 9 9 10 10 11 12 12 12 12 11 11 11 12 13 14 13 13 13 13 13 13 13 13 13 12 12
3 2 1 3 3 1 1 1 2 2 2 4 2 5 5 5 5 4 2 2 3 2 1 2 2 0 1 0 1 1 4 2 1 5 2 3 1 7 7 9 8 8 7 5 5 4 4 7 9 10 13 13 13 14 14 13 13 12 12 11 11 11 10 10 10 10 10 10 10 10 10 10 10 10 11 11 11 12 12 12 12 12 12 12 12 12 12 13 13 13 13 13 13 13 13 12 12
1 3 2 2 0 2 4 0 1 3 8 4 1 5 5 6 6 7 2 2 1 1 2 2 1 2 0 1 2 1 3 3 2 3 4 7 7 8 8 8 9 7 6 5 4 4 4 7 8 10 13 13 13 13 14 13 14 13 13 12 12 11 11 11 11 11 11 10 11 11 11 11 11 11 11 11 12 12 12 12 12 13 13 13 12 12 13 13 13 14 13 13 13 13 12 12 12
1 4 3 4 2 4 4 2 5 5 10 8 4 5 8 5 5 4 1 0 1 1 1 2 2 2 0 1 0 1 1 2 4 3 7 6 8 8 8 8 8 7 6 5 4 4 4 7 10 11 12 12 13 14 14 14 14 14 14 14 13 13 12 12 12 12 12 12 13 13 13 12 12 12 12 12 12 12 12 12 12 13 13 12 12 13 13 13 13 14 13 13 13 13 13 12 12
1 1 1 2 1 2 0 2 5 6 5 8 4 4 6 5 4 4 4 2 2 4 1 2 1 2 2 1 2 1 2 0 3 1 5 10 9 8 8 9 10 7 6 4 4 4 5 8 10 12 13 13 13 14 14 14 15 14 14 15 15 15 15 14 14 14 14 14 14 14 13 13 13 12 12 12 12 12 12 12 12 12 12 12 13 13 13 13 13 13 13 13 14 13 13 13 13
3 1 0 5 0 1 1 3 5 3 7 3 9 7 5 5 6 5 4 2 1 1 2 2 4 3 3 1 2 1 3 1 0 4 8 10 12 10 8 10 11 8 7 5 5 4 4 7 10 14 14 14 14 15 15 15 15 15 15 15 16 16 16 16 15 15 14 14 14 14 14 14 13 13 13 12 12 12 12 12 12 12 12 12 13 13 13 13 13 14 14 14 14 14 14 14 14
1 2 1 1 2 2 3 7 0 5 4 5 5 6 4 5 5 3 5 1 4 1 3 1 1 2 1 3 2 1 2 3 4 5 8 10 11 8 8 8 9 11 7 6 4 4 3 7 10 11 13 14 14 15 15 14 14 15 15 14 15 15 15 15 15 15 15 15 15 15 15 14 14 14 13 13 12 12 12 12 12 12 12 12 12 12 13 13 13 13 14 14 14 14 14 14 14
1 4 2 2 1 1 3 6 5 7 4 5 7 5 5 5 5 3 3 2 1 3 0 2 1 4 1 3 3 0 2 4 9 11 10 10 8 9 8 7 8 10 9 6 5 4 4 4 9 10 11 12 13 14 14 14 14 14 14 14 14 14 14 14 14 15 15 15 15 15 15 15 14 14 14 13 13 12 12 12 12 12 12 12 12 12 13 13 13 14 14 14 14 14 14 14 14
1 1 2 2 2 5 5 3 5 9 8 3 3 0 4 7 2 1 3 2 3 1 5 7 3 5 1 1 2 3 0 4 7 8 9 7 8 5 7 6 8 7 9 8 5 4 4 4 4 8 9 10 10 12 12 13 13 13 13 13 13 13 13 14 14 14 15 15 15 15 15 15 15 14 14 13 13 12 12 12 12 12 12 12 12 13 13 13 13 14 14 14 14 14 15 15 15
3 1 4 3 3 1 2 1 7 4 5 5 3 0 4 5 5 7 4 3 1 3 4 10 1 4 2 3 2 2 4 9 4 5 7 6 5 4 5 6 6 7 7 7 7 6 5 4 5 4 6 9 9 10 10 11 13 13 14 14 13 14 14 14 14 14 15 15 15 15 15 15 15 14 14 13 13 13 12 12 12 13 13 13 13 13 13 14 14 14 15 14 14 14 14 15 14
1 3 3 2 1 1 1 4 3 4 5 4 2 1 3 2 4 4 4 3 5 6 4 7 2 3 2 1 3 3 7 6 4 5 4 4 4 5 6 5 6 6 6 6 7 6 5 5 5 5 5 5 5 7 9 11 12 14 15 15 15 15 15 15 15 15 15 15 15 15 14 14 14 14 14 13 13 13 13 12 13 13 13 13 13 13 13 14 14 14 14 14 14 14 14 14 14
0 1 3 1 2 1 3 2 2 1 6 2 2 0 1 3 0 1 5 4 8 4 1 2 4 3 6 7 7 7 9 10 8 5 5 5 5 5 5 5 6 5 5 6 5 5 5 4 5 4 4 5 5 5 4 7 12 13 15 15 15 15 15 15 15 15 15 15 15 14 13 12 12 13 13 13 13 12 12 11 13 13 13 13 13 13 14 14 14 14 14 14 14 14 14 14 14
2 4 2 0 2 1 5 3 0 1 5 2 3 1 0 4 0 1 4 3 1 1 1 5 1 4 1 6 2 5 8 12 8 7 7 6 5 4 4 4 4 4 5 6 6 6 5 5 4 4 4 4 4 5 4 5 9 12 13 14 15 15 15 15 15 14 13 13 13 12 11 8 8 8 11 8 12 12 12 9 12 13 14 14 14 14 14 14 15 15 15 15 15 15 15 14 14
2 3 1 1 6 2 4 3 1 3 5 3 5 1 3 2 1 2 1 0 1 2 1 2 5 0 3 3 2 3 9 11 10 9 7 6 6 5 4 4 4 4 5 6 7 7 6 6 6 5 4 5 5 4 4 4 6 11 10 12 13 14 14 14 14 11 10 10 9 8 8 6 5 5 6 6 8 5 8 10 12 13 13 13 13 13 14 14 14 14 14 14 15 15 14 14 14
2 1 3 3 5 2 5 4 5 1 1 3 1 4 4 4 2 1 1 1 1 1 3 3 3 1 1 2 1 5 12 15 12 14 10 8 6 6 7 7 7 10 8 7 7 8 8 7 8 7 6 5 5 5 4 3 4 6 6 6 6 8 9 9 8 5 7 5 8 7 5 5 5 5 5 6 4 5 7 11 11 12 13 12 12 13 13 13 13 13 14 14 14 13 12 7 7
3 1 2 7 5 7 5 4 3 1 4 3 3 2 5 8 1 1 1 3 2 5 5 1 4 3 4 4 4 10 12 12 13 13 15 15 12 14 13 9 10 6 9 9 9 11 10 8 7 8 8 7 6 5 5 4 4 5 5 5 5 7 7 6 6 5 5 5 4 4 5 5 5 4 4 4 4 7 7 10 12 12 12 12 11 12 12 12 12 13 13 13 12 11 7 6 6
4 4 5 7 8 6 5 3 6 4 3 4 3 2 5 4 2 0 2 8 3 8 7 1 5 11 6 4 4 8 10 12 13 14 15 16 15 15 12 12 12 12 13 12 12 8 9 10 11 9 9 8 8 6 6 6 5 5 6 6 6 6 6 6 5 4 5 5 5 4 5 4 4 4 6 8 6 5 7 9 11 10 10 10 10 7 9 10 11 11 11 10 7 4 5 5 5
2 2 5 6 4 3 7 7 8 6 3 2 3 0 1 5 5 2 2 4 11 12 9 9 11 14 9 9 8 9 10 12 12 12 14 15 14 11 14 16 17 16 12 8 5 10 12 11 10 10 9 9 8 7 7 7 6 6 6 6 6 7 6 6 4 4 4 5 5 5 4 4 4 5 5 6 6 6 5 5 5 5 4 4 5 5 4 4 5 5 4 5 5 5 5 5 5
4 9 6 7 1 1 9 6 7 3 3 2 2 2 7 0 1 4 4 10 15 7 5 12 12 12 7 12 12 9 12 14 15 14 16 17 19 18 13 9 6 4 5 9 12 11 13 12 11 10 10 9 10 9 9 8 7 7 7 6 6 6 6 5 5 4 5 5 5 5 5 5 6 6 5 6 6 6 6 6 5 4 4 4 3 5 5 4 4 4 4 5 5 5 5 5 5
5 4 6 6 6 6 3 2 2 2 1 2 4 5 0 1 4 3 6 16 19 3 4 10 12 13 10 10 13 11 13 15 17 18 18 17 16 16 15 14 12 12 11 13 11 10 11 11 11 10 11 10 10 8 7 7 8 7 7 7 7 6 6 6 5 4 5 6 6 6 6 6 6 6 6 6 6 6 6 6 5 4 4 4 3 5 4 4 4 4 5 4 4 5 5 5 5
5 9 1 7 5 11 10 7 5 3 5 7 4 2 3 2 9 1 6 20 17 10 3 7 9 6 6 11 15 19 19 19 20 21 21 23 23 23 21 18 15 9 7 11 11 11 12 14 13 12 12 11 10 9 9 8 7 7 7 7 6 7 7 6 6 6 6 7 6 6 5 6 7 7 6 7 6 5 6 5 5 5 4 3 3 3 5 4 4 4 4 4 5 5 6 5 5
5 8 4 6 4 7 6 6 5 4 6 5 3 5 10 6 6 4 17 23 16 8 5 8 4 3 6 10 15 15 15 15 17 18 13 13 14 13 7 7 7 8 12 12 11 12 14 13 13 14 13 13 10 10 10 8 7 7 7 7 7 7 7 7 7 6 6 6 5 6 5 7 6 6 7 7 6 6 6 6 6 5 4 3 3 3 3 3 4 3 4 4 4 5 5 5 5
7 11 2 4 4 6 6 7 8 8 6 3 3 12 10 6 3 9 25 27 14 5 7 10 6 6 8 11 14 15 16 18 19 14 20 16 8 9 13 12 11 13 17 13 12 14 11 13 15 16 15 14 12 11 9 9 9 9 8 8 8 7 7 7 6 6 6 7 6 6 6 6 7 8 7 6 7 7 6 6 5 5 5 4 4 5 2 3 4 3 3 3 4 4 5 5 4
3 3 4 6 7 7 6 5 8 2 4 4 6 13 13 1 4 13 17 11 2 5 9 7 7 10 12 10 10 13 15 18 20 19 9 8 11 14 15 12 13 18 11 13 14 13 12 13 15 15 14 13 11 12 10 10 9 9 9 8 7 8 7 7 7 6 6 6 6 7 6 6 6 6 7 7 6 7 6 6 6 4 4 4 4 4 2 4 4 4 4 4 4 4 5 4 5
1 1 6 8 5 6 11 5 12 1 7 8 9 12 8 1 2 15 22 1 4 3 4 6 6 10 11 11 11 10 12 16 14 8 17 15 15 16 15 16 19 14 14 17 14 11 11 16 15 14 14 13 12 12 10 10 10 10 9 8 9 8 8 7 7 7 7 6 6 7 6 7 7 6 7 7 7 7 7 7 6 5 5 4 3 4 4 3 4 3 3 3 3 3 4 3 3
1 3 7 11 6 10 17 7 7 5 7 4 7 2 8 3 9 22 20 9 3 5 8 8 8 9 10 9 9 8 14 15 8 11 18 19 17 14 18 18 17 15 14 14 12 11 15 15 14 15 13 12 14 14 12 10 9 9 9 9 8 8 8 8 8 8 7 6 6 7 7 7 7 8 7 8 7 7 7 7 6 5 5 4 4 4 4 3 3 4 3 2 3 3 3 3 2
1 1 1 11 8 8 18 3 2 4 4 6 6 6 9 11 19 19 17 8 1 5 11 12 10 11 11 9 9 11 11 9 11 17 17 16 15 14 18 16 16 15 13 9 10 14 14 10 11 11 13 14 15 12 10 9 10 9 8 8 8 9 8 9 8 7 7 7 6 7 7 7 7 7 7 7 6 7 6 6 6 5 4 4 4 4 4 4 4 3 3 3 3 3 3 3 4
4 3 2 6 7 10 6 3 2 2 3 9 4 5 11 15 13 13 15 6 5 9 12 13 12 11 10 10 10 11 13 12 17 18 16 15 14 11 15 11 13 14 9 9 16 20 15 13 11 11 14 14 13 13 13 11 10 10 9 9 8 9 9 9 8 7 7 7 7 7 7 7 7 7 7 8 7 7 7 6 6 6 5 4 5 4 5 3 4 3 3 4 3 3 3 3 3
1 2 7 2 7 10 16 4 5 6 1 5 5 7 13 18 20 7 4 1 6 9 13 13 12 11 11 9 10 11 14 12 14 14 14 15 12 12 14 15 14 13 16 17 16 11 14 14 14 13 14 15 15 14 13 12 11 10 9 9 9 9 9 8 8 8 8 7 7 7 7 7 7 7 7 7 7 7 7 7 6 6 5 5 5 4 4 4 3 4 2 3 3 3 3 3 3
3 7 7 9 4 7 10 8 3 10 3 1 10 10 5 12 17 11 4 6 6 9 11 12 13 13 12 10 10 11 12 13 11 13 14 14 13 14 14 14 15 18 18 14 14 15 15 15 15 15 17 18 16 14 12 10 10 10 10 10 10 9 9 8 7 7 7 7 7 7 7 8 7 7 7 6 7 7 7 6 6 6 5 5 5 4 4 3 3 4 3 2 3 2 3 3 3
8 2 8 5 6 2 5 10 5 4 8 5 8 7 13 16 16 8 2 3 4 6 11 12 12 10 10 9 10 12 12 14 15 15 16 13 13 15 14 14 15 15 14 15 15 17 19 17 16 17 15 15 14 13 12 11 10 9 8 8 8 9 8 7 7 7 7 7 7 8 8 8 7 7 7 6 7 6 6 7 6 6 6 5 5 4 4 2 3 4 3 2 3 2 3 4 4
9 4 5 7 4 6 11 2 3 2 4 7 6 13 16 16 16 15 11 5 6 9 11 11 9 8 10 9 11 13 13 14 18 18 12 8 11 11 12 11 12 11 12 15 14 14 11 12 12 13 14 14 13 11 10 9 7 5 4 6 6 6 6 6 7 7 7 7 8 8 8 8 8 7 7 7 7 7 7 7 7 6 6 6 5 5 4 3 3 2 3 1 2 2 2 2 2
12 10 8 3 6 7 6 12 8 4 6 8 10 13 16 18 20 20 15 12 12 16 10 11 13 13 13 13 14 14 14 17 18 16 5 7 10 11 12 11 11 12 12 12 13 13 13 13 11 11 13 13 11 10 9 8 8 8 9 5 5 7 7 7 7 8 7 8 8 8 8 8 7 8 8 7 7 7 7 7 7 6 5 6 6 6 4 4 4 3 3 3 2 1 2 2 3
6 1 4 10 10 10 7 15 9 3 3 10 15 17 18 17 17 20 16 11 12 15 14 15 13 13 14 14 16 18 18 20 20 8 8 10 10 11 12 11 11 9 10 12 14 15 16 17 15 16 13 14 13 12 11 12 12 8 6 11 12 10 10 8 8 8 8 8 8 9 8 8 8 8 7 8 8 7 7 6 6 5 5 6 6 6 5 5 4 4 3 1 2 2 2 3 4
8 8 7 14 6 14 16 14 9 4 7 6 10 17 19 18 16 17 13 9 17 17 17 18 18 14 13 16 19 18 20 15 14 10 6 4 5 8 7 8 8 11 12 13 16 18 16 15 17 15 13 14 15 15 14 13 13 15 16 15 12 11 11 11 11 9 9 8 9 9 8 7 8 8 8 7 7 8 8 7 7 7 6 6 5 4 4 4 4 3 4 2 1 2 1 1 4
7 8 8 9 10 13 16 11 15 9 3 14 12 17 18 16 17 17 14 16 17 15 16 20 17 13 12 15 18 19 17 17 16 14 7 6 6 6 7 9 11 16 15 17 16 12 13 14 14 14 14 15 14 14 13 14 12 9 10 8 11 8 5 5 5 5 5 7 8 9 8 8 9 8 8 8 8 8 8 7 7 7 6 6 6 5 5 5 4 4 4 5 4 1 3 1 3
5 7 5 12 8 2 14 4 7 0 8 4 4 12 13 10 11 15 14 16 17 16 17 17 15 14 16 18 18 17 18 17 18 19 12 7 7 7 7 9 11 8 8 7 10 15 13 13 13 15 15 15 14 15 14 12 10 6 4 4 4 5 5 4 4 5 5 6 8 8 8 9 9 8 8 8 7 7 8 8 7 7 7 6 7 7 6 6 5 4 3 3 4 3 2 1 1
7 12 8 11 11 15 13 8 4 5 5 4 11 16 16 12 17 14 15 18 16 16 16 15 16 13 16 15 14 16 20 22 18 17 11 5 6 9 12 11 7 10 11 13 14 15 13 17 16 16 15 15 14 14 14 10 9 8 6 6 5 6 5 5 5 6 8 8 8 9 12 9 9 9 9 9 8 8 7 7 7 7 7 6 6 7 7 7 6 5 5 4 4 6 4 2 1
12 8 13 20 17 13 10 12 9 5 7 4 4 10 14 9 17 17 11 7 8 12 13 17 20 17 14 17 21 22 18 18 18 18 14 7 9 7 6 7 10 10 12 14 14 14 13 13 14 13 12 12 12 13 13 12 12 13 12 11 11 9 9 10 14 17 14 14 15 8 7 10 11 9 9 9 8 7 8 7 7 7 7 7 7 6 6 6 5 6 6 6 4 3 6 5 3
13 5 17 18 13 9 8 9 2 7 6 3 2 3 21 6 4 6 7 9 13 9 9 15 16 15 12 16 19 19 17 15 10 11 9 7 8 6 7 10 12 12 12 8 8 10 11 12 13 15 14 12 12 13 14 12 12 12 16 17 15 15 15 12 9 7 10 9 7 10 10 8 10 11 9 9 8 8 7 7 8 7 7 7 6 7 7 7 7 6 5 5 5 5 6 5 6
10 2 8 7 6 6 5 4 7 9 1 4 3 5 9 24 8 7 13 15 12 12 14 16 16 15 14 16 17 17 18 11 10 11 9 8 8 12 15 14 11 14 7 8 9 9 12 13 13 14 11 12 11 12 14 14 14 13 13 12 12 14 15 14 12 10 8 8 9 10 9 9 9 9 9 9 8 8 8 8 8 7 8 7 7 7 8 7 6 5 5 5 4 5 5 8 6
5 1 7 5 5 4 3 3 4 3 5 12 7 3 4 14 6 15 15 11 10 13 17 19 16 15 16 16 17 17 17 15 7 10 9 9 10 11 9 10 9 6 9 11 12 12 11 10 11 10 12 12 11 14 14 14 13 14 14 12 12 11 10 7 7 7 9 10 11 8 9 9 8 8 9 9 9 9 8 8 8 8 8 8 7 7 6 7 8 8 6 6 5 5 4 5 7
5 6 5 5 4 4 2 1 0 4 3 17 7 4 4 20 15 5 0 5 9 13 18 19 16 15 16 16 15 13 12 11 7 9 7 7 8 8 6 3 5 7 5 6 6 6 7 8 10 11 11 10 10 13 14 14 13 12 13 14 15 11 8 5 7 9 10 10 12 11 9 9 9 8 8 9 9 8 8 7 8 8 8 7 7 7 7 7 7 7 7 6 6 5 4 6 6
4 4 3 4 6 3 4 6 3 4 9 12 12 10 7 12 6 9 9 7 12 12 6 8 9 10 12 14 13 13 13 12 9 7 5 5 3 4 5 7 7 5 6 7 8 9 9 10 12 13 13 10 11 14 14 16 14 13 14 14 15 13 11 9 9 10 9 10 12 12 12 10 9 9 8 8 9 8 7 7 7 7 6 6 7 7 8 8 8 7 6 5 5 6 6 6 5
3 1 2 4 5 6 3 4 3 3 13 4 11 14 11 10 5 4 4 3 2 7 10 14 13 14 14 13 12 13 14 11 6 5 5 4 4 5 6 7 8 8 6 8 8 9 10 11 12 14 12 13 12 13 14 15 14 15 13 14 15 14 13 12 15 14 14 14 13 12 10 9 10 9 9 8 9 9 8 8 7 6 7 7 8 6 7 7 6 6 6 6 5 4 5 6 6
4 4 2 2 6 6 3 2 1 6 13 2 4 8 2 22 8 3 8 8 4 8 10 12 13 13 12 12 13 14 8 4 6 6 4 5 8 9 9 7 6 10 12 12 12 11 11 11 14 16 16 14 14 14 16 16 15 16 16 15 14 13 14 15 14 13 12 13 12 11 12 13 11 11 12 12 11 13 10 10 9 9 8 7 7 7 6 7 7 6 6 5 6 6 7 7 7
7 7 6 6 5 4 5 5 3 6 7 6 5 3 12 8 4 10 13 16 13 10 12 12 11 12 12 11 10 10 6 5 6 5 5 7 9 9 9 10 11 10 10 11 10 11 11 11 13 16 17 14 13 13 16 16 18 17 15 15 14 13 14 14 13 13 13 12 11 13 14 13 14 16 15 16 14 14 12 11 10 9 7 7 8 8 8 7 7 7 7 7 7 6 6 7 7
13 3 13 12 10 6 3 5 10 9 10 3 3 5 9 1 6 6 14 5 4 4 8 11 7 7 8 7 8 13 12 6 3 5 7 9 9 9 11 11 10 10 11 11 10 10 10 11 13 16 14 15 17 18 16 18 17 17 16 15 13 12 14 12 12 11 11 12 11 12 12 11 12 12 13 13 13 14 13 11 10 10 9 9 9 9 8 8 7 7 7 7 6 5 6 7 7
3 3 3 1 9 6 8 8 6 6 2 4 3 8 3 6 1 4 4 7 9 4 4 5 8 10 8 9 11 11 13 2 3 5 7 7 7 6 6 7 9 9 10 10 11 12 12 15 15 17 19 17 17 16 17 19 18 14 13 14 16 14 11 10 10 10 10 11 12 13 12 12 11 9 8 10 12 14 14 13 11 11 10 10 9 9 9 8 8 8 7 6 7 4 6 7 6
4 7 7 12 3 8 6 4 2 2 1 15 3 7 10 7 13 8 11 9 11 4 6 5 7 11 13 11 11 11 10 4 4 7 8 7 5 6 8 7 8 8 9 13 15 15 17 15 15 17 16 12 15 17 18 15 13 13 16 16 13 13 15 15 15 13 11 10 10 11 11 11 9 9 9 9 11 12 12 13 13 12 11 10 10 9 9 9 8 8 8 8 7 6 6 7 6
9 3 8 2 2 3 3 5 2 4 11 10 3 15 10 3 15 3 2 3 5 5 8 11 11 7 7 10 10 12 8 6 5 6 6 6 5 6 6 6 9 12 13 13 14 13 11 11 12 14 12 15 16 17 16 15 16 17 15 16 16 16 15 15 12 12 10 9 10 9 9 9 11 9 9 9 10 12 12 13 13 12 11 11 11 10 10 10 9 8 8 7 7 6 6 5 6
3 5 2 6 3 4 3 4 6 8 11 7 9 18 15 10 15 2 8 9 9 10 7 3 6 8 9 10 12 11 6 6 7 8 7 8 9 10 10 11 7 6 8 9 8 8 8 9 11 12 17 19 16 11 9 9 11 12 13 15 16 15 13 13 11 10 10 12 13 12 12 11 8 9 10 10 11 11 12 12 12 12 12 12 11 11 10 10 10 9 8 8 7 7 7 6 6
0 0 1 1 1 3 6 8 3 4 14 9 13 12 17 5 3 2 8 8 9 8 6 7 5 7 7 7 9 11 9 7 8 7 8 9 10 9 9 9 10 11 9 7 7 6 10 12 10 12 11 8 9 13 14 15 15 13 12 11 12 14 14 13 13 12 12 13 13 12 12 11 13 10 11 11 12 13 12 13 12 13 13 12 12 11 11 10 9 9 9 8 7 7 7 7 6
3 3 3 2 1 3 2 3 4 7 10 10 10 12 8 10 4 4 5 7 4 2 4 6 7 7 6 6 8 10 9 8 10 10 10 11 11 10 9 7 6 5 5 6 9 12 12 8 12 14 15 15 14 14 13 15 13 15 14 15 16 15 15 13 12 12 13 12 11 12 12 11 9 12 12 12 12 12 12 12 12 13 14 14 13 12 10 10 9 9 8 8 8 8 8 6 7
7 10 11 12 8 4 7 12 3 3 7 9 10 13 4 10 1 4 1 1 1 1 1 5 6 7 9 12 9 7 9 11 11 12 11 12 11 10 5 3 5 6 7 10 11 9 10 13 16 14 12 13 15 15 15 17 15 15 15 15 14 12 12 11 13 12 13 12 12 12 12 10 14 12 13 14 14 12 11 12 11 11 12 12 12 12 11 10 10 10 9 7 8 8 8 7 7
Wind_Direction
321 324 307 310 96 77 52 4 80 308 45 258 305 253 254 253 209 78 207 328 211 262 228 339 50 98 177 207 174 172 187 134 202 130 211 231 278 219 145 144 142 139 143 155 148 150 160 152 143 139 136 135 135 137 141 138 137 133 128 125 122 123 120 115 111 107 106 104 103 105 105 102 97 93 85 76 70 69 70 69 71 72 68 67 73 80 81 80 84 84 75 70 63 55 48 46 45
314 321 322 264 216 79 300 118 97 349 37 0 256 130 250 276 109 202 195 200 205 190 220 209 61 69 55 87 110 112 69 256 172 177 290 249 318 259 165 149 151 146 150 155 153 150 158 159 152 147 143 142 142 143 145 141 134 140 136 133 128 127 127 120 117 112 110 109 106 106 103 98 94 88 85 80 73 68 67 70 67 69 67 61 68 71 69 66 65 65 65 64 57 51 50 45 41
342 352 6 28 28 75 61 43 298 36 42 292 275 214 313 283 208 232 218 218 230 169 102 172 119 48 65 65 43 154 244 134 72 111 157 302 144 215 180 157 154 148 148 155 151 154 155 167 156 150 144 142 145 147 148 147 146 145 143 141 138 133 129 123 124 119 115 118 108 104 105 96 88 84 82 80 75 71 69 69 67 63 65 57 61 63 59 58 59 62 62 60 58 51 47 43 40
28 49 92 62 274 29 63 23 94 126 210 217 307 278 229 199 238 210 238 238 215 78 231 203 150 232 116 300 211 63 81 238 198 156 135 211 210 164 164 160 149 141 139 151 157 155 164 174 160 153 149 145 147 151 149 148 149 148 146 143 140 134 131 129 125 120 118 114 115 111 102 99 92 88 85 80 77 75 74 73 70 62 57 53 53 59 62 60 58 55 54 54 53 51 47 44 40
9 318 99 92 109 357 103 184 148 108 235 204 214 272 261 224 220 200 245 248 266 234 142 202 88 315 173 175 152 175 239 221 287 192 178 220 199 156 145 148 143 141 151 157 157 159 174 180 168 157 151 147 147 148 148 148 147 146 145 144 140 135 131 129 126 122 118 117 112 108 106 103 100 99 90 87 84 81 77 76 72 65 60 59 59 62 63 62 60 57 55 54 51 47 44 42 40
37 40 13 92 136 174 52 30 305 214 224 153 287 256 246 231 188 203 222 279 251 231 207 151 183 193 194 222 196 221 183 124 187 191 162 206 175 148 144 142 141 145 155 159 160 160 176 172 160 161 151 151 149 146 144 148 147 144 143 142 142 137 133 131 128 125 124 119 113 111 110 109 110 107 102 95 89 86 83 79 76 72 65 61 60 60 57 56 55 54 53 52 52 49 45 42 40
346 35 355 22 6 55 173 172 229 211 266 171 237 251 253 234 222 148 197 102 277 4 195 194 111 97 34 283 11 220 233 244 120 235 163 166 163 146 146 142 139 148 153 161 162 156 173 164 164 160 157 154 152 151 149 148 148 147 146 144 142 140 138 133 130 126 122 117 115 113 112 110 106 102 97 93 90 88 86 83 79 75 72 67 62 61 59 58 55 52 49 48 47 46 44 43 43
62 113 308 104 232 39 201 226 250 161 272 175 220 229 253 205 170 176 190 130 234 169 221 286 225 118 236 97 197 263 335 196 238 277 132 146 156 152 145 144 143 155 157 161 162 159 176 171 173 164 163 159 156 153 151 150 149 147 146 145 143 138 136 133 130 128 126 123 122 120 117 113 109 105 101 96 91 89 87 85 83 80 77 72 68 62 60 59 58 56 53 48 46 44 44 44 45
343 86 16 71 236 33 9 245 255 221 276 276 270 226 251 185 175 150 182 228 343 254 220 206 220 119 256 163 215 280 282 310 11 157 142 154 162 157 149 153 149 156 158 161 162 167 173 179 174 168 166 161 157 154 152 150 148 145 144 142 139 137 136 135 133 132 129 128 126 123 120 116 113 109 106 104 100 95 92 89 85 82 79 75 71 66 62 58 57 55 54 53 50 48 46 44 41
6 89 313 152 131 265 345 289 175 240 220 229 241 257 180 159 191 190 176 265 216 128 242 215 210 204 127 204 295 261 247 148 132 109 155 164 160 151 149 157 151 148 155 158 160 163 169 170 166 166 164 159 158 157 155 153 149 147 145 143 141 139 137 137 136 135 133 130 128 124 121 118 115 111 107 105 102 98 94 91 89 86 83 79 75 72 67 63 59 58 56 54 55 54 52 48 43
354 7 144 75 19 253 246 269 258 301 261 313 301 233 215 153 160 214 197 210 172 168 324 161 284 230 122 260 209 296 291 162 147 170 174 167 160 157 151 150 151 152 152 156 157 158 167 169 170 166 165 163 161 158 155 153 150 147 144 142 139 138 137 137 136 134 132 129 126 125 122 120 117 114 110 106 103 101 97 94 91 88 85 83 80 77 74 69 66 64 59 54 54 53 49 47 45
340 20 6 119 196 174 237 216 267 271 293 321 265 243 180 162 142 216 231 213 199 239 176 163 227 142 212 321 277 315 48 200 188 165 166 159 164 156 144 149 152 156 151 155 151 153 163 169 165 173 166 160 161 158 155 153 151 147 143 141 139 137 136 135 134 133 131 129 127 124 122 120 118 116 113 109 106 103 100 97 95 92 88 84 82 81 77 74 71 68 65 60 56 52 48 45 43
115 114 77 101 234 149 233 280 259 292 312 280 215 254 132 138 188 213 218 198 156 138 275 216 90 124 243 210 259 318 194 216 211 167 159 158 153 132 134 145 154 149 153 152 152 162 166 165 168 165 163 159 157 156 155 153 152 148 146 144 144 143 141 139 138 135 132 130 127 124 121 119 119 117 115 111 106 101 98 95 95 94 89 83 82 82 77 73 71 70 66 63 59 56 51 48 46
111 178 122 250 83 206 196 252 296 314 293 254 255 274 163 170 240 193 129 192 209 179 238 187 135 137 249 19 292 253 225 198 192 165 137 120 112 124 139 144 151 155 159 159 164 166 169 173 165 162 152 145 148 150 153 153 154 152 149 147 148 146 146 144 143 141 138 133 129 126 122 120 117 116 115 111 104 97 92 92 94 93 87 82 80 79 77 74 71 68 64 61 57 54 52 48 46
315 179 87 113 298 42 244 167 222 156 267 230 274 145 294 257 81 130 175 213 255 211 337 122 177 104 247 160 274 232 200 182 166 148 120 102 107 120 131 144 153 159 167 173 168 171 184 177 173 159 151 145 142 146 150 157 155 154 151 150 149 149 147 146 144 140 138 136 132 127 121 113 108 105 105 106 101 96 88 83 88 87 83 79 76 74 71 69 68 64 61 58 54 51 49 45 41
159 83 85 213 268 159 271 212 281 122 267 201 278 48 277 282 249 167 246 179 260 310 116 209 240 204 211 164 223 244 163 150 152 128 119 112 102 106 128 145 160 175 179 183 181 190 183 184 179 168 158 152 148 148 158 158 155 152 152 151 151 150 149 147 143 141 137 133 130 125 119 112 107 100 95 90 93 87 82 80 81 78 75 73 70 68 65 62 60 56 53 51 49 46 41 37 35
58 83 277 34 284 162 258 182 146 303 256 274 289 337 195 270 267 234 131 96 177 229 228 221 190 24 194 205 291 107 127 129 127 127 122 130 133 139 141 156 169 188 199 200 191 191 190 188 184 173 174 161 157 154 160 163 162 153 152 151 149 150 151 150 146 134 126 124 121 121 121 118 116 105 96 94 82 71 69 74 77 76 73 73 74 73 70 67 64 59 55 51 49 43 34 27 24
61 189 126 264 204 174 219 201 192 204 223 280 275 222 183 284 304 259 32 304 224 272 230 283 287 58 327 303 60 127 137 141 149 148 163 161 163 168 183 193 178 197 194 198 206 193 187 196 187 179 173 176 164 163 163 171 171 148 148 147 145 147 147 140 134 141 138 134 126 121 125 123 114 107 100 90 81 70 75 78 80 80 75 73 74 74 74 72 70 64 59 55 50 45 39 30 19
151 129 122 232 191 238 161 206 232 139 275 237 243 280 185 235 149 286 221 276 273 267 255 231 254 279 35 48 103 135 145 149 161 169 169 173 182 186 190 188 198 185 201 202 205 197 193 187 186 182 182 175 169 169 169 178 168 153 147 145 145 140 139 140 150 146 144 139 127 123 119 118 120 116 114 110 96 96 91 89 89 85 77 70 70 71 74 74 71 69 64 58 52 45 38 32 25
234 130 234 244 212 240 223 222 264 204 241 263 273 273 165 249 173 32 216 260 298 241 237 256 228 244 210 147 153 153 160 166 173 174 183 189 191 190 188 194 200 205 202 198 195 190 188 191 191 185 179 176 172 174 173 176 173 162 156 156 151 148 146 152 153 150 142 142 142 136 131 134 129 134 128 108 98 90 84 78 77 76 77 72 65 53 54 63 62 60 63 61 54 51 50 41 28
265 128 206 231 217 215 264 237 241 243 178 245 208 359 278 269 219 155 223 325 261 245 222 200 220 231 210 175 173 170 170 175 186 191 192 197 202 203 201 197 195 198 198 181 179 194 194 192 186 188 179 176 174 174 174 180 178 165 166 164 157 153 150 152 154 143 138 146 153 152 156 142 128 119 116 114 110 105 96 89 80 78 75 67 68 63 57 49 53 51 45 50 52 48 43 33 32
115 212 220 220 103 211 254 241 247 211 212 245 243 292 255 76 69 220 184 237 265 245 213 207 227 232 178 177 188 175 181 184 191 194 201 198 197 204 209 221 232 216 170 186 199 191 196 193 187 183 179 180 180 176 179 177 171 172 172 172 159 159 155 158 157 147 144 158 157 162 158 135 128 127 124 118 112 108 102 100 96 93 72 67 59 65 53 47 41 42 44 44 37 43 43 34 27
251 267 255 237 227 245 257 249 232 183 259 230 286 243 7 256 267 231 198 228 254 211 189 196 216 228 202 168 160 183 189 194 195 200 201 205 210 212 208 205 195 198 195 206 192 197 191 192 187 177 183 180 183 179 173 175 183 179 170 170 160 167 161 159 166 166 169 168 166 165 153 146 137 133 125 122 119 117 112 112 104 93 91 78 64 78 60 47 48 42 41 43 39 41 38 33 28
214 255 190 272 208 232 256 267 297 278 250 252 224 11 257 275 287 225 229 250 247 251 180 204 218 232 121 149 179 185 192 195 202 205 201 203 202 205 203 199 203 201 197 205 196 193 189 193 186 178 183 181 182 179 176 182 182 174 174 171 172 166 161 171 176 181 175 175 169 165 151 148 145 138 136 131 136 124 128 123 120 106 105 104 91 88 79 50 44 39 44 37 37 36 37 27 26
205 264 230 264 236 243 260 260 285 265 255 260 319 285 252 203 242 1 269 268 255 250 220 236 218 163 168 176 188 198 201 208 212 214 215 222 217 217 218 221 206 194 208 206 197 193 196 189 184 187 182 184 181 177 181 182 180 175 173 175 176 172 172 177 177 176 178 177 165 163 158 149 145 142 143 144 138 132 133 131 127 128 123 132 110 84 97 83 60 55 53 52 47 40 35 28 23
210 234 246 284 272 287 277 293 268 261 272 181 285 262 263 235 282 273 260 268 275 222 220 231 212 222 201 203 199 196 204 208 214 211 214 214 211 206 215 207 200 203 210 199 193 202 190 185 188 190 185 182 179 177 183 180 181 178 181 181 178 174 178 174 173 181 182 171 170 168 167 156 156 153 147 148 141 143 139 135 131 138 132 144 119 108 123 107 104 78 68 65 58 46 40 23 26
178 226 236 260 272 300 278 228 271 238 248 154 222 271 272 264 145 273 271 257 253 197 224 237 208 224 228 221 213 208 205 213 211 214 214 213 212 212 214 205 205 214 197 204 202 200 190 185 194 191 186 182 176 183 182 184 178 183 182 179 177 180 172 168 176 178 177 179 170 166 166 158 155 152 149 151 145 145 142 140 141 142 133 144 135 127 128 118 110 99 99 84 68 59 47 29 32
302 262 313 290 291 265 262 248 265 310 284 195 207 253 279 317 140 245 259 331 83 165 253 260 238 238 240 233 223 216 216 224 219 194 210 203 212 211 207 203 211 206 197 209 203 189 184 195 192 189 186 181 179 185 182 183 184 183 179 177 182 176 168 173 173 176 180 179 166 166 166 160 157 156 153 153 151 149 147 144 147 141 150 155 135 127 114 109 104 111 105 100 100 92 70 47 35
285 22 325 293 327 324 278 262 264 144 256 161 166 258 288 169 221 241 246 260 319 299 279 261 248 250 250 243 235 225 222 226 202 204 219 214 214 205 211 208 204 200 212 207 192 182 195 192 189 190 184 182 184 185 184 184 180 180 177 183 180 171 174 171 175 180 178 177 167 166 165 161 161 159 160 157 154 149 146 144 147 149 159 151 138 129 113 99 89 92 83 101 94 89 86 51 49
345 47 198 309 318 310 283 126 283 156 251 143 131 277 258 240 233 246 258 265 300 291 275 269 258 251 252 249 236 237 237 229 213 217 221 218 216 207 213 210 203 201 202 191 176 195 196 188 189 182 185 186 187 184 181 181 181 181 179 180 178 173 177 176 179 176 174 173 168 167 163 163 161 161 157 157 151 146 146 147 148 154 162 148 136 121 109 118 119 114 135 106 101 83 63 45 34
257 248 87 241 322 270 267 58 125 168 205 171 149 224 269 273 253 246 258 262 233 256 264 267 265 261 254 250 248 244 242 219 225 224 224 221 219 212 216 211 203 203 184 184 192 199 184 185 181 185 187 187 182 185 183 183 178 178 177 179 179 178 177 178 176 171 173 174 167 166 165 164 164 163 162 155 154 148 149 150 153 163 160 151 131 137 126 128 130 134 128 93 70 61 61 54 51
283 6 253 317 202 267 292 304 178 236 289 205 113 254 248 262 270 254 243 158 181 231 251 261 265 266 260 256 252 252 251 235 238 238 229 225 215 213 208 210 201 194 195 197 198 177 186 185 183 184 182 185 187 185 183 180 178 177 178 179 176 180 176 178 177 177 172 167 167 165 169 165 166 166 161 157 152 154 154 157 163 161 161 144 140 135 122 125 118 90 68 106 84 43 48 24 42
334 199 260 256 172 261 341 291 206 226 148 271 177 230 270 284 266 268 274 224 195 225 254 258 261 263 267 260 255 254 263 264 245 237 231 220 214 212 209 208 198 199 199 191 186 184 187 184 183 182 183 186 185 183 179 177 173 176 178 180 178 176 179 177 175 168 165 168 169 168 171 169 169 166 163 160 149 154 156 157 166 164 156 146 141 133 123 138 115 99 84 81 101 104 58 30 16
263 173 223 216 228 231 246 297 279 196 167 210 238 242 238 250 271 262 242 161 172 221 249 257 260 263 262 267 265 258 254 258 258 249 235 211 214 209 209 205 204 202 199 193 189 183 186 182 184 185 184 182 179 178 176 176 176 170 174 175 175 180 181 173 168 166 172 173 169 171 172 169 169 166 162 159 151 155 158 159 165 162 151 142 138 136 139 111 107 113 102 42 81 87 50 36 13
236 185 243 277 255 218 245 273 270 101 242 220 227 235 248 254 266 272 263 243 239 243 248 255 261 267 269 263 263 261 255 256 255 251 243 201 213 210 207 203 203 198 197 194 187 188 177 180 179 181 175 176 176 171 168 165 157 150 145 161 173 180 177 174 167 175 176 173 177 171 170 170 168 165 162 161 154 159 160 164 164 162 149 145 138 136 119 110 102 79 112 72 22 73 104 46 34
238 224 241 211 244 238 216 240 254 217 245 234 230 236 244 249 260 265 267 261 259 261 257 265 263 262 264 262 263 265 261 256 255 256 233 202 203 199 203 199 199 197 194 186 184 179 180 176 178 175 177 172 164 161 155 155 155 163 165 159 177 194 185 177 184 182 174 179 177 171 172 171 169 167 166 165 160 162 163 169 163 158 151 145 144 140 145 140 140 112 124 119 80 40 33 43 30
270 309 235 246 248 268 268 266 262 189 275 236 241 244 251 251 248 257 259 267 266 266 265 258 253 254 256 259 256 256 260 259 259 259 226 213 202 198 200 194 196 190 187 181 180 184 181 178 171 179 173 168 167 167 170 166 169 167 175 188 193 187 187 181 184 183 182 182 176 175 173 172 172 168 169 166 169 166 166 163 156 159 155 152 153 164 159 156 152 148 152 128 125 80 30 359 5
245 255 267 266 246 272 249 263 271 211 205 258 237 253 254 252 253 257 265 266 263 260 263 261 256 243 249 254 259 257 254 265 273 270 256 251 216 207 193 186 173 175 198 182 185 188 181 173 178 173 169 174 177 175 174 178 181 183 181 189 185 183 181 184 188 187 184 178 177 176 176 175 173 174 172 172 169 168 167 169 167 166 160 160 162 153 148 150 140 133 132 72 360 122 115 40 356
241 235 251 281 260 257 275 261 265 258 165 264 260 263 258 253 252 255 255 253 255 253 248 256 258 253 242 247 254 260 265 263 269 267 239 230 221 208 190 192 194 197 187 187 189 171 174 178 179 172 176 175 179 177 174 183 185 185 184 180 180 177 194 186 174 168 161 174 183 180 178 178 175 176 175 175 173 176 173 167 172 165 164 159 152 154 154 152 153 160 169 148 113 36 101 62 46
214 242 256 244 254 274 285 193 259 238 187 263 241 267 266 267 265 260 255 254 252 251 253 256 254 251 247 243 245 254 260 262 262 263 257 218 213 205 196 198 201 188 176 180 172 179 177 181 178 176 178 179 177 181 183 180 171 154 127 129 137 133 163 150 140 139 160 164 187 186 187 181 181 178 178 178 178 176 173 174 165 167 169 168 163 159 161 160 153 158 165 180 151 113 124 75 61
196 217 229 257 250 238 235 272 333 280 280 262 288 277 270 247 257 256 250 244 254 260 260 259 259 243 248 257 262 253 255 258 259 264 260 216 208 207 201 201 176 186 186 185 181 180 183 182 180 177 177 181 181 178 175 158 136 122 111 94 95 89 80 133 143 177 183 186 178 191 193 180 179 181 181 181 177 176 174 171 170 169 165 170 162 161 162 167 164 168 166 171 181 149 145 137 33
249 197 210 235 243 262 258 279 328 321 303 251 239 313 276 198 216 236 240 265 245 248 249 254 253 251 245 254 254 254 251 251 253 256 256 224 216 211 206 189 189 196 194 194 185 182 174 177 175 176 175 179 179 176 168 160 165 159 153 153 167 178 180 177 191 192 186 190 195 175 165 185 183 180 182 179 179 172 176 174 169 166 170 170 169 166 154 145 161 163 182 171 174 177 140 130 127
268 246 206 233 244 240 261 277 358 280 257 318 103 200 291 134 226 222 246 244 244 255 241 247 252 251 241 242 250 256 252 253 249 254 255 222 218 198 204 199 198 197 204 172 172 178 176 175 176 176 176 179 177 173 169 166 167 175 178 182 181 185 190 206 200 186 186 186 160 178 185 182 186 180 182 179 179 177 174 173 172 174 172 171 167 153 158 165 167 173 172 170 183 155 133 126 148
262 217 182 212 233 235 225 203 192 258 286 249 148 153 257 291 239 208 214 228 232 245 252 250 247 248 243 240 244 250 257 241 240 241 238 224 204 195 202 203 193 203 170 160 172 172 175 177 174 177 176 176 176 172 174 177 176 180 183 188 189 195 198 196 187 187 174 170 179 184 180 186 185 184 177 181 177 178 176 174 174 172 173 174 166 168 164 162 155 164 173 175 174 166 149 134 145
225 201 142 170 193 203 150 164 198 235 11 299 166 97 285 265 258 192 193 227 235 236 242 248 247 245 247 247 244 245 252 258 228 243 234 212 202 209 207 198 200 163 166 176 179 178 175 172 172 173 177 176 175 176 177 184 184 183 186 186 196 207 201 189 176 172 175 178 184 182 183 183 182 184 182 177 181 180 178 177 175 173 173 175 170 160 158 157 161 159 158 158 169 168 143 137 126
266 117 84 80 74 72 101 106 105 325 23 276 168 159 213 283 295 161 350 207 227 229 231 241 239 238 241 249 254 254 260 264 236 232 235 213 211 211 200 156 156 187 165 160 156 151 161 163 171 175 181 177 175 179 181 185 186 181 189 196 199 195 187 168 173 183 183 180 188 184 184 180 183 182 182 182 179 183 180 175 176 179 179 173 169 165 156 157 161 163 168 167 167 153 145 134 140
101 80 76 9 36 26 26 68 93 30 266 259 164 189 164 276 297 171 142 195 210 216 253 262 264 262 263 261 257 257 253 253 249 233 227 214 214 177 151 172 174 158 165 162 164 167 167 170 174 180 184 178 178 182 181 188 189 189 196 196 198 193 187 176 177 192 185 184 192 188 185 185 180 184 176 184 184 178 179 178 179 183 176 173 164 163 167 164 166 166 168 163 162 156 153 140 132
137 178 127 23 328 12 33 344 42 193 268 219 189 176 180 223 284 299 219 258 276 208 209 229 235 245 248 255 258 255 251 250 259 235 227 170 137 150 155 171 174 175 161 173 175 171 175 176 176 181 184 186 182 183 186 191 191 197 200 197 198 196 184 188 192 193 191 192 193 189 185 175 183 178 179 179 185 179 175 180 180 175 179 175 176 168 161 160 158 155 159 162 168 162 149 139 138
114 100 82 221 264 28 317 33 306 199 236 248 211 169 9 240 228 220 288 265 245 208 220 226 226 236 245 253 257 256 257 270 245 232 189 184 185 182 187 183 165 181 189 182 179 177 177 181 182 183 193 187 186 185 190 192 194 200 199 199 202 194 195 195 197 197 192 194 190 188 184 191 179 180 188 184 187 179 177 176 179 182 182 184 168 164 162 157 156 159 163 166 167 166 163 150 146
129 166 166 127 249 241 251 268 252 302 288 253 162 177 244 273 304 214 248 253 228 204 217 229 229 224 233 244 260 275 293 248 240 219 206 204 198 197 194 185 189 188 186 184 182 182 184 186 188 191 195 186 186 188 194 193 202 202 199 201 199 194 201 197 200 199 193 195 191 193 192 191 191 194 183 189 180 176 181 182 178 179 174 168 169 167 162 161 160 161 165 167 171 173 155 147 145
199 110 158 193 174 154 196 215 243 238 247 307 279 134 233 71 248 220 215 255 329 233 226 229 250 284 283 293 300 287 277 265 249 221 213 208 206 194 194 195 192 191 187 182 185 188 182 191 192 198 191 193 191 195 192 199 203 202 201 202 199 198 202 198 203 199 192 193 195 195 197 195 199 199 193 186 171 177 176 171 174 172 172 173 169 167 163 161 161 158 164 167 166 167 157 145 142
212 162 61 41 227 148 221 217 228 267 335 324 215 216 208 234 259 294 254 267 263 261 299 319 281 263 274 281 270 264 270 304 245 242 241 232 211 205 203 197 199 193 189 188 189 186 191 200 198 200 200 195 196 194 198 202 203 198 200 201 204 201 200 200 202 200 199 194 193 195 197 198 199 194 195 183 181 174 171 170 170 174 172 172 173 169 164 162 162 159 161 163 167 176 156 148 148
224 111 190 215 149 162 251 318 255 96 341 255 197 284 273 305 274 241 254 249 264 286 276 279 277 256 250 253 264 267 273 311 264 241 238 233 206 220 213 203 195 192 193 197 196 194 199 196 196 202 204 196 199 202 205 203 200 196 203 205 200 200 201 201 202 198 195 191 191 197 194 196 188 189 185 185 180 179 171 168 169 170 172 172 170 170 165 161 161 161 165 165 170 172 156 152 142
108 188 230 77 112 117 159 213 337 231 243 265 273 255 273 360 283 348 23 49 274 271 259 236 244 277 292 268 265 268 289 274 262 265 267 261 239 227 224 221 209 202 199 198 201 200 201 200 206 208 204 204 208 205 203 200 198 202 203 203 203 203 203 205 199 195 187 182 193 193 188 186 195 183 178 181 180 179 175 170 168 170 171 171 172 167 166 164 161 165 167 171 168 161 150 140 141
146 193 241 143 238 248 246 95 228 234 239 256 238 275 270 233 256 284 293 297 296 281 262 282 282 267 254 265 271 277 285 291 274 260 256 252 232 224 216 219 220 219 212 209 206 198 202 209 212 207 208 211 208 206 212 214 207 207 206 205 203 203 205 204 200 190 178 189 193 192 191 190 170 176 174 176 179 182 180 176 170 169 169 171 168 170 167 166 166 163 167 165 168 162 154 146 148
115 355 308 66 99 203 158 200 185 188 250 246 257 250 267 231 205 210 229 246 241 256 313 277 270 263 266 268 272 275 279 265 263 261 258 253 247 231 218 213 210 207 204 204 195 193 212 213 206 218 226 221 205 203 202 208 208 209 208 204 205 205 204 200 196 187 189 194 194 188 187 180 186 169 180 176 180 183 182 178 176 170 170 170 172 172 171 168 165 167 163 163 170 160 154 152 151
221 229 270 301 227 230 118 311 166 211 243 232 259 251 254 272 189 216 233 223 231 219 295 315 314 308 293 282 277 286 281 263 255 245 245 242 244 244 229 216 219 219 207 193 193 203 213 203 214 213 211 210 212 214 205 212 204 209 205 204 204 201 202 198 194 193 194 194 188 187 187 185 161 184 174 178 182 184 183 180 177 176 174 174 172 172 172 166 166 163 164 162 164 162 156 156 150
199 192 217 212 213 258 253 252 174 203 222 242 244 253 251 280 186 181 201 227 211 258 245 278 283 291 295 285 284 270 278 276 266 252 231 236 237 239 245 214 202 199 205 205 208 202 204 208 214 212 212 213 213 213 209 211 205 207 205 209 206 201 198 193 197 194 197 194 190 186 182 169 184 182 176 179 180 178 179 179 180 182 180 177 175 171 167 165 163 162 162 164 168 164 162 156 154